WJA546 CYVR-KSFO

Flight info

Callsign WJA546
Flight time N/A
Altitude 33000
Route VIXOR DCT ELMAA Q1 ETCHY DCT MLBEC BDEGA4
Aircraft B738/M-SDE2E3FGHIRWXY/LB1

Departure

Time N/A
Airport Vancouver International Airport (CYVR)

Arrival

Time 2026-05-05 02:24
Airport San Francisco International Airport (KSFO)
Time Latitude Longitude Altitude Speed Heading
2026-05-05 01:53 39.83974 -123.17100 33045 ft 471 kts 171°
2026-05-05 01:53 39.77426 -123.16699 33053 ft 471 kts 171°
2026-05-05 01:54 39.70877 -123.16341 33040 ft 471 kts 172°
2026-05-05 01:54 39.64366 -123.16030 33050 ft 470 kts 172°
2026-05-05 01:55 39.57822 -123.15730 33055 ft 470 kts 172°
2026-05-05 01:55 39.51288 -123.15431 33054 ft 470 kts 172°
2026-05-05 01:56 39.44743 -123.15131 33058 ft 470 kts 172°
2026-05-05 01:56 39.38237 -123.14832 33056 ft 470 kts 172°
2026-05-05 01:57 39.31700 -123.14532 33035 ft 471 kts 172°
2026-05-05 01:57 39.25131 -123.14231 33039 ft 472 kts 172°
2026-05-05 01:58 39.18560 -123.13931 33019 ft 473 kts 172°
2026-05-05 01:58 39.12027 -123.13465 32965 ft 468 kts 164°
2026-05-05 01:59 39.08902 -123.12505 32544 ft 458 kts 154°
2026-05-05 01:59 39.05988 -123.10977 32140 ft 444 kts 146°
2026-05-05 01:59 39.03375 -123.08981 31716 ft 433 kts 140°
2026-05-05 01:59 39.00877 -123.06884 31320 ft 428 kts 140°
2026-05-05 02:00 38.98383 -123.04802 30895 ft 424 kts 140°
2026-05-05 02:00 38.95914 -123.02764 30499 ft 421 kts 141°
2026-05-05 02:00 38.93441 -123.00742 30065 ft 418 kts 141°
2026-05-05 02:00 38.91000 -122.98759 29609 ft 415 kts 141°
2026-05-05 02:01 38.88530 -122.96760 29147 ft 421 kts 142°
2026-05-05 02:01 38.85822 -122.95202 28662 ft 437 kts 160°
2026-05-05 02:01 38.82852 -122.94344 28294 ft 438 kts 161°
2026-05-05 02:01 38.79865 -122.93537 27801 ft 438 kts 161°
2026-05-05 02:02 38.76929 -122.92732 27345 ft 436 kts 161°
2026-05-05 02:02 38.73975 -122.91894 26886 ft 431 kts 161°
2026-05-05 02:02 38.71076 -122.91049 26449 ft 426 kts 161°
2026-05-05 02:02 38.68194 -122.90196 26016 ft 423 kts 161°
2026-05-05 02:03 38.65344 -122.89351 25619 ft 420 kts 160°
2026-05-05 02:03 38.62522 -122.88517 25199 ft 417 kts 160°
2026-05-05 02:03 38.59719 -122.87689 24782 ft 415 kts 161°
2026-05-05 02:03 38.56945 -122.86871 24373 ft 413 kts 161°
2026-05-05 02:04 38.54146 -122.86047 24102 ft 412 kts 161°
2026-05-05 02:04 38.51355 -122.85223 24087 ft 415 kts 161°
2026-05-05 02:04 38.48543 -122.84396 24076 ft 412 kts 160°
2026-05-05 02:04 38.45764 -122.83581 24018 ft 405 kts 160°
2026-05-05 02:05 38.43039 -122.82785 23772 ft 398 kts 160°
2026-05-05 02:05 38.40357 -122.81998 23389 ft 396 kts 160°
2026-05-05 02:05 38.37699 -122.81216 22976 ft 396 kts 160°
2026-05-05 02:05 38.35010 -122.80426 22584 ft 395 kts 160°
2026-05-05 02:06 38.32329 -122.79639 22178 ft 393 kts 160°
2026-05-05 02:06 38.29682 -122.78863 21804 ft 392 kts 160°
2026-05-05 02:06 38.27004 -122.78080 21420 ft 391 kts 161°
2026-05-05 02:06 38.24364 -122.77308 21040 ft 390 kts 161°
2026-05-05 02:07 38.21728 -122.76539 20646 ft 388 kts 161°
2026-05-05 02:07 38.19078 -122.75766 20013 ft 394 kts 161°
2026-05-05 02:07 38.16382 -122.74980 19414 ft 397 kts 161°
2026-05-05 02:07 38.13686 -122.74194 18835 ft 400 kts 161°
2026-05-05 02:08 38.10956 -122.73408 18246 ft 402 kts 162°
2026-05-05 02:08 38.08250 -122.72622 17586 ft 404 kts 162°
2026-05-05 02:08 38.05515 -122.71828 16938 ft 404 kts 163°
2026-05-05 02:08 38.02814 -122.71047 16287 ft 395 kts 163°
2026-05-05 02:09 38.00157 -122.70279 15643 ft 387 kts 163°
2026-05-05 02:09 37.97556 -122.69526 15023 ft 379 kts 163°
2026-05-05 02:09 37.95022 -122.68791 14448 ft 373 kts 164°
2026-05-05 02:09 37.92539 -122.68075 14151 ft 358 kts 164°
2026-05-05 02:10 37.90198 -122.67266 14009 ft 341 kts 152°
2026-05-05 02:10 37.88222 -122.65650 13696 ft 338 kts 136°
2026-05-05 02:10 37.86450 -122.63710 13343 ft 334 kts 136°
2026-05-05 02:10 37.84706 -122.61805 13006 ft 329 kts 137°
2026-05-05 02:11 37.82951 -122.59918 12694 ft 328 kts 137°
2026-05-05 02:11 37.81245 -122.58102 12389 ft 328 kts 137°
2026-05-05 02:11 37.79504 -122.56264 12093 ft 327 kts 137°
2026-05-05 02:11 37.77756 -122.54410 11747 ft 325 kts 138°
2026-05-05 02:12 37.76043 -122.52593 11442 ft 317 kts 138°
2026-05-05 02:12 37.72770 -122.49131 10843 ft 302 kts 137°
2026-05-05 02:12 37.71418 -122.47171 10521 ft 292 kts 115°
2026-05-05 02:13 37.70711 -122.44810 10261 ft 284 kts 104°
2026-05-05 02:13 37.70172 -122.42433 9979 ft 283 kts 103°
2026-05-05 02:13 37.69652 -122.40032 9644 ft 281 kts 103°
2026-05-05 02:13 37.69146 -122.37676 9246 ft 282 kts 103°
2026-05-05 02:14 37.68639 -122.35248 8713 ft 285 kts 103°
2026-05-05 02:14 37.68147 -122.32817 8183 ft 285 kts 103°
2026-05-05 02:14 37.67683 -122.30383 7697 ft 285 kts 103°
2026-05-05 02:14 37.67241 -122.27967 7212 ft 284 kts 103°
2026-05-05 02:15 37.66811 -122.25518 6721 ft 282 kts 103°
2026-05-05 02:15 37.66419 -122.23133 6265 ft 280 kts 102°
2026-05-05 02:15 37.66044 -122.20742 5899 ft 273 kts 104°
2026-05-05 02:15 37.65336 -122.18582 5505 ft 264 kts 127°
2026-05-05 02:16 37.64241 -122.16848 5168 ft 258 kts 132°
2026-05-05 02:16 37.63096 -122.15152 4828 ft 253 kts 133°
2026-05-05 02:16 37.62335 -122.14035 4605 ft 249 kts 133°
2026-05-05 02:16 37.61231 -122.12414 4323 ft 238 kts 132°
2026-05-05 02:17 37.60166 -122.10869 3931 ft 231 kts 133°
2026-05-05 02:17 37.59126 -122.09344 3529 ft 227 kts 133°
2026-05-05 02:17 37.58116 -122.07844 3237 ft 220 kts 132°
2026-05-05 02:17 37.57039 -122.06578 3008 ft 205 kts 158°
2026-05-05 02:18 37.55732 -122.06338 3000 ft 188 kts 199°
2026-05-05 02:18 37.54627 -122.07131 3007 ft 184 kts 224°
2026-05-05 02:18 37.53660 -122.08167 2991 ft 182 kts 227°
2026-05-05 02:18 37.53037 -122.09478 2979 ft 172 kts 262°
2026-05-05 02:19 37.52852 -122.10965 2986 ft 174 kts 262°
2026-05-05 02:19 37.52684 -122.12465 3001 ft 176 kts 263°
2026-05-05 02:19 37.52531 -122.13989 2999 ft 176 kts 269°
2026-05-05 02:19 37.52927 -122.15442 3003 ft 177 kts 306°
2026-05-05 02:20 37.53567 -122.16733 2992 ft 176 kts 289°
2026-05-05 02:20 37.54038 -122.18153 2999 ft 176 kts 295°
2026-05-05 02:20 37.54606 -122.19531 2910 ft 179 kts 296°
2026-05-05 02:20 37.55197 -122.20938 2673 ft 181 kts 296°
2026-05-05 02:21 37.55771 -122.22313 2436 ft 172 kts 295°
2026-05-05 02:21 37.56315 -122.23617 2203 ft 171 kts 296°
2026-05-05 02:21 37.56870 -122.24950 1978 ft 172 kts 296°
2026-05-05 02:21 37.57414 -122.26256 1732 ft 162 kts 296°
2026-05-05 02:22 37.57917 -122.27461 1519 ft 149 kts 296°
2026-05-05 02:22 37.58390 -122.28598 1338 ft 146 kts 296°
2026-05-05 02:22 37.58856 -122.29715 1118 ft 142 kts 295°
2026-05-05 02:22 37.59312 -122.30810 935 ft 140 kts 295°
2026-05-05 02:23 37.59767 -122.31899 736 ft 140 kts 296°
2026-05-05 02:23 37.60217 -122.32977 547 ft 140 kts 297°
2026-05-05 02:23 37.60658 -122.34066 387 ft 137 kts 296°
2026-05-05 02:23 37.61097 -122.35105 240 ft 134 kts 298°
2026-05-05 02:24 37.61534 -122.36140 36 ft 132 kts 296°
2026-05-05 02:24 37.61904 -122.37016 21 ft 103 kts 297°
2026-05-05 02:24 37.62064 -122.37411 21 ft 25 kts 296°